Regional Weather Roundup
Issued by NWS Goodland, KS

Home | Current Version | Previous Version | Graphics & Text | Print | Product List | Glossary On
Versions: 1 2 3 4 5 6 7 8 9 10 11 12 13 14 15 16 17 18 19 20 21 22 23 24 25 26 27 28 29 30 31 32 33 34 35 36 37 38 39 40 41 42 43 44 45 46 47 48 49 50
000
ASUS43 KGLD 222259
RWRGLD

GOODLAND FORECAST AREA HOURLY WEATHER ROUNDUP
NATIONAL WEATHER SERVICE GOODLAND KS
400 PM MST WED FEB 22 2017

...OFFICIAL OBSERVATIONS...

CITY           SKY/WX    TMP DP  RH WIND       PRES   REMARKS
GOODLAND KS    SUNNY     63  20  19 E5        29.74F
HILL CITY KS   MOSUNNY   72  23  16 N8        29.72F
IMPERIAL NEB   SUNNY     63  17  17 NE6       29.74F
MCCOOK NEB     SUNNY     66  24  20 N8        29.73F
AKRON CO       SUNNY     58  17  20 NE5       29.76F
BURLINGTON CO  SUNNY     63  23  21 E9        29.75F
LIMON CO       SUNNY     59  20  22 E17G25    29.73F
$$

...UNOFFICIAL OBSERVATIONS...

CITY           SKY/WX    TMP DP  RH WIND       PRES   REMARKS
LENORA KS        N/A     68  32  26 CALM        N/A
NORTON KS      SUNNY     68  14  12 N9G16     29.72F
SHARON SPRINGS   N/A     67  27  22 CALM        N/A
TRENTON NEB      N/A     64  32  30 NE5         N/A
KIT CARSON CO    N/A     66  26  22 MISG        N/A
YUMA CO        FAIR      57  19  23 E3        29.76F
$$




USA.gov is the U.S. government's official web portal to all federal, state and local government web resources and services.